Temp
80 85 83 82 84 85 84 83 80 79 81 80 80 80 78 80 78 78 78 76 75 78
81 81 79 78 83 85 82 83 79 79 79 79 79 79 77 81 78 76 78 77 76 75
81 81 81 80 78 77 77 77 77 77 78 78 78 77 76 78 80 77 79 75 73 74
82 81 81 80 78 77 77 76 76 76 76 77 76 75 73 74 77 75 75 77 76 75
81 80 80 78 79 78 76 76 75 75 74 71 72 71 72 71 74 72 74 75 73 73
81 80 78 77 77 77 75 75 75 73 73 72 74 72 72 73 73 72 71 72 70 72
77 77 78 77 75 75 74 73 73 73 73 74 73 71 70 71 73 73 75 74 72 70
75 75 74 73 73 73 73 72 72 72 72 73 73 70 66 70 73 72 72 73 72 71
73 73 72 72 72 72 72 71 71 71 70 68 73 62 63 65 73 72 70 68 66 67
72 71 71 71 71 70 70 71 70 71 71 68 67 61 62 64 75 73 72 69 66 68
72 71 71 70 70 70 71 70 70 70 71 71 68 61 61 63 75 73 72 71 69 68
72 71 70 70 70 71 71 72 72 72 71 70 68 60 59 62 74 73 73 72 68 67
72 71 70 70 70 71 72 73 75 73 74 67 71 58 59 61 73 70 74 74 70 61
72 71 71 71 72 72 73 72 72 72 73 74 71 67 58 58 70 69 71 73 73 73
MSLP
1013.55 1013.05 1012.95 1013.01 1012.86 1012.94 1012.95 1013.03 1013.55 1013.71 1013.45 1013.40 1013.23 1013.19 1013.00 1012.50 1012.46 1012.32 1012.06 1012.01 1011.83 1011.46
1013.39 1013.36 1013.43 1013.51 1013.11 1013.25 1013.67 1013.53 1013.92 1014.13 1014.01 1013.85 1013.72 1013.60 1013.44 1012.58 1012.50 1012.56 1012.14 1012.11 1012.02 1011.85
1013.59 1013.60 1013.83 1013.97 1014.14 1014.26 1014.24 1014.19 1014.26 1014.41 1014.25 1014.01 1013.71 1013.65 1013.49 1013.03 1012.63 1012.62 1012.31 1012.11 1012.14 1012.06
1013.63 1013.91 1014.02 1014.21 1014.48 1014.45 1014.58 1014.75 1014.78 1014.75 1014.41 1014.21 1014.04 1014.18 1014.09 1013.85 1013.02 1012.97 1012.69 1012.48 1012.18 1011.88
1014.01 1014.23 1014.37 1014.58 1014.76 1014.89 1014.92 1014.96 1015.01 1015.00 1014.98 1015.19 1015.07 1015.09 1014.69 1014.33 1013.81 1013.60 1012.87 1012.69 1012.80 1012.42
1014.14 1014.38 1014.72 1015.04 1015.15 1015.29 1015.36 1015.30 1015.23 1015.38 1015.38 1015.37 1015.14 1015.09 1014.73 1014.39 1014.06 1013.76 1013.41 1013.09 1013.04 1012.79
1014.72 1014.94 1015.07 1015.47 1015.61 1015.59 1015.73 1015.77 1015.80 1015.83 1015.75 1015.49 1015.53 1015.64 1015.49 1014.90 1014.14 1013.87 1013.48 1013.25 1013.33 1013.31
1015.21 1015.61 1015.91 1016.10 1016.05 1016.05 1016.19 1016.43 1016.54 1016.47 1016.39 1016.15 1016.06 1016.31 1016.21 1015.38 1014.44 1014.18 1014.01 1013.87 1013.85 1013.75
1015.65 1015.94 1016.20 1016.34 1016.49 1016.57 1016.69 1016.92 1016.96 1016.79 1016.92 1017.07 1016.63 1016.92 1016.50 1016.03 1014.72 1014.48 1014.41 1014.70 1014.98 1014.52
1015.84 1016.04 1016.31 1016.57 1016.76 1016.83 1016.93 1017.07 1017.10 1017.17 1017.17 1017.46 1017.52 1017.33 1016.79 1016.11 1014.90 1014.69 1014.59 1014.78 1015.12 1014.61
1015.84 1016.07 1016.42 1016.69 1016.88 1017.03 1017.16 1017.29 1017.32 1017.44 1017.38 1017.24 1017.73 1017.65 1017.07 1016.12 1015.08 1014.85 1014.73 1014.72 1014.91 1014.79
1015.94 1016.23 1016.52 1016.72 1016.88 1017.12 1017.09 1017.06 1017.06 1017.19 1017.29 1017.29 1017.48 1017.75 1017.27 1016.57 1015.17 1014.84 1014.31 1014.51 1015.07 1015.00
1016.11 1016.43 1016.68 1016.98 1017.05 1017.10 1016.90 1016.70 1016.38 1016.59 1016.56 1017.02 1017.08 1017.67 1017.58 1017.05 1015.82 1015.15 1014.32 1014.04 1014.52 1014.70
1016.34 1016.53 1016.79 1016.92 1016.90 1016.76 1016.68 1016.61 1016.34 1016.25 1016.14 1016.09 1016.67 1017.19 1017.41 1017.16 1016.29 1015.89 1014.81 1014.16 1013.90 1014.24
Wind_Speed
5 2 4 6 4 4 3 4 6 8 9 10 10 10 9 9 7 8 6 8 6 8
6 5 6 4 3 4 6 6 9 8 8 9 9 9 10 7 7 8 9 9 8 6
6 6 5 6 6 6 7 8 8 8 8 9 9 10 10 9 9 10 8 5 6 7
6 6 5 6 6 7 7 7 7 8 8 9 11 13 12 12 10 10 10 11 11 11
6 5 6 5 5 6 6 6 6 9 10 11 8 8 7 8 9 10 10 7 9 10
6 5 6 5 6 7 7 7 8 7 6 5 9 11 11 11 10 8 9 8 9 8
6 6 7 6 7 8 8 8 9 9 8 8 10 11 12 11 9 10 10 9 7 9
6 7 7 7 8 9 9 8 7 8 9 10 10 10 12 11 9 9 9 11 12 12
8 8 8 7 7 8 8 7 7 8 9 11 9 16 16 13 9 9 10 11 10 10
8 8 8 8 7 7 7 7 7 6 6 8 11 16 17 18 6 7 8 9 9 9
8 8 8 7 6 5 4 4 4 4 5 5 7 12 16 21 6 6 7 8 9 11
7 7 8 6 5 4 3 2 3 2 2 5 6 8 14 16 8 7 5 8 8 10
7 7 7 5 5 3 4 3 4 3 1 4 4 4 8 12 8 8 7 5 7 17
8 7 6 5 3 2 1 2 2 3 4 5 3 5 3 4 7 8 9 7 7 8
Wind_Direction
174 140 63 50 70 58 48 51 17 355 351 347 342 339 342 324 329 325 320 308 290 295
145 115 91 72 24 33 34 14 23 357 352 351 346 345 342 314 351 356 343 338 330 324
102 87 83 64 48 42 31 25 14 360 356 353 360 359 349 349 344 348 331 331 338 339
91 83 68 68 51 36 41 20 13 4 3 1 13 9 2 345 354 343 350 343 349 334
100 89 79 59 70 45 43 30 32 23 9 23 3 357 357 344 343 344 334 352 342 353
103 93 79 65 57 55 40 36 37 41 12 23 15 9 2 352 340 343 319 350 353 5
84 66 67 70 66 62 54 46 41 35 22 26 17 15 356 347 355 356 354 352 339 39
92 88 82 78 72 67 56 54 43 44 35 12 33 18 351 337 12 3 4 9 7 14
112 112 103 89 81 78 78 69 54 52 50 29 23 357 349 340 346 15 29 22 10 344
122 114 102 98 94 86 76 68 57 49 51 53 17 354 346 336 359 7 19 58 18 1
131 121 114 111 102 102 98 85 68 54 26 52 45 351 347 336 0 22 28 31 31 13
140 131 134 135 132 136 149 164 152 110 71 5 69 10 347 343 355 8 38 62 57 40
142 144 149 145 166 177 229 151 305 342 177 143 50 66 358 345 5 358 345 20 132 75
146 150 154 171 185 189 254 320 319 326 281 219 127 141 201 316 352 357 327 3 358 15